Starlink 32363

operational
NORAD ID: 61678 Int'l Des: 2024-193 Owner: SPXS Country: US Constellation: starlink
LEOCIRCULAR

关于 Starlink 32363

正在加载描述...

实时位置

正在加载3D地球...

即将过境

高度历史

Altitude vs Time

uPlot chart will show altitude changes over time

两行轨道根数

1 61678U 24193T 25259.18549127 -.00000743 00000-0 -12971-4 0 9997
2 61678 53.1583 181.2473 0001080 78.8009 281.3113 15.30183324 49813
Epoch: Sep 16, 2025 • Age: 9 hours

当前状态

高度 494.5 km
速度 7.62 km/s
星下点 -53.15°S, 102.36°W
发射日期 Oct 26, 2024
运行时间 0.8 years
类型 internet

技术详情

分类 Payload
质量 730.00 kg
干质量 700.00 kg
总质量 730.00 kg
长度 0.30 m
直径 4.10 m
跨度 29.00 m
形状 Box + pan
制造商 SPXS
平台类型 Starlink V2M
阶段状态 In Orbit
所有者/国家 SPXS/US

大型星座

Loading constellations...